[[{"header":{"parameterUnit":"m.s-1","parameterCategory":1,"la1":30.2991,"la2":30.254,"lo1":-89.0895,"lo2":-89.0444,"dy":0.0017,"dx":0.0017,"nx":28,"ny":28,"refTime":"2024-02-19T03:00:00:Z","depth":0,"parameterNumber":2,"parameterNumberName":"U-component_of_WINDS"},"data":[0,0,0,0,0,0,0,0,0,0,0,0,0,0,0,0,0,0,0,0,0,0,0,0,0,0,0,0,0,0,0,0,0,0,0,0,0,0,0,0,0,0,0,0,0,0,0,0,0,0,0,0,0,0,0,0,0,0,1.8785,1.8785,0,1.874,1.8739,1.8739,1.8705,1.8705,1.8704,1.8704,1.8659,1.8658,1.8657,0,0,0,0,0,0,0,0,0,0,0,0,0,1.8846,1.8845,1.8785,1.8785,1.8784,1.874,1.8739,1.8739,1.8705,1.8705,1.8704,1.8704,1.8659,1.8658,1.8657,0,0,0,0,0,0,0,0,0,0,0,0,0,1.8812,1.8844,1.8786,1.8762,1.876,1.874,1.8739,1.8739,1.8705,1.8705,1.8704,1.8704,1.8659,1.8658,1.8657,1.8657,0,0,1.8652,1.8652,0,0,0,0,0,0,0,0,1.8814,1.881,1.8766,1.8764,1.8761,1.8728,1.8744,1.8711,1.8705,1.8726,1.8704,1.8704,1.8682,1.8679,1.8671,1.8655,1.8653,1.8652,1.8651,1.8651,1.865,0,0,0,0,0,0,0,1.8816,1.8811,1.8767,1.8766,1.8762,1.8755,1.8749,1.8737,1.8707,1.8724,1.8721,1.8717,1.868,1.8673,1.867,1.8652,1.8652,1.8651,1.865,1.8649,1.8636,1.8636,0,0,0,0,0,0,1.8822,1.8814,1.8769,1.8766,1.8787,1.8754,1.8748,1.8739,1.8707,1.8702,1.8717,1.8715,1.8675,1.8672,1.8668,1.8668,1.8651,1.8649,1.8649,1.8635,1.8636,1.8636,0,0,0,0,0,0,1.8823,1.8818,1.8771,1.8789,1.8782,1.8753,1.8743,1.8738,1.873,1.8702,1.8696,1.8714,1.8675,1.867,1.866,1.8665,1.8649,1.8647,1.8635,1.8635,1.8636,1.8666,0,0,0,0,0,0,1.8825,1.8819,1.8818,1.8789,1.8782,1.8763,1.8744,1.8738,1.8728,1.8725,1.8698,1.8693,1.8674,1.8663,1.8659,1.8663,1.8646,1.8634,1.8635,1.8636,1.8664,1.8667,1.867,0,0,0,0,0,1.8827,1.8828,1.8818,1.8813,1.878,1.8763,1.8759,1.8737,1.8728,1.8728,1.871,1.8694,1.8666,1.8662,1.8657,1.8661,1.8634,1.8635,1.8636,1.8663,1.8667,1.867,0,0,0,0,0,0,1.8858,1.8824,1.8812,1.8804,1.8787,1.8758,1.8756,1.8741,1.8727,1.8725,1.8698,1.8693,1.8686,1.8673,1.8669,1.8661,1.8648,1.8648,1.867,1.8673,1.8676,1.868,1.8645,0,0,0,0,0,1.8864,1.8853,1.8824,1.8819,1.8811,1.8785,1.8777,1.8762,1.8743,1.8736,1.8717,1.87,1.8687,1.868,1.8666,1.8662,1.8657,1.8663,1.8666,1.8669,1.8669,1.8668,1.867,1.864,1.864,1.864,0,0,1.8876,1.8856,1.885,1.8824,1.8809,1.8799,1.8779,1.8769,1.8762,1.8734,1.8724,1.871,1.8689,1.8683,1.8679,1.8671,1.8677,1.867,1.8672,1.8671,1.8669,1.8672,1.8675,1.864,1.864,1.864,0,0,1.8892,1.8875,1.887,1.8856,1.8833,1.8817,1.8816,1.8789,1.8779,1.8768,1.8748,1.8739,1.8717,1.8704,1.8694,1.8708,1.8693,1.8704,1.872,1.8719,1.8721,1.8723,1.8729,1.8731,1.8705,1.8705,1.8705,0,1.8909,1.8893,1.8869,1.8861,1.8851,1.8826,1.8821,1.8809,1.8783,1.8777,1.8769,1.8743,1.8727,1.8718,1.8722,1.8714,1.8713,1.8707,1.8723,1.8724,1.8726,1.8731,1.8733,1.8707,1.8706,1.8706,1.8706,0,1.8916,1.8905,1.8904,1.888,1.887,1.8863,1.884,1.8833,1.8819,1.8803,1.8794,1.8774,1.8757,1.8754,1.874,1.8743,1.8739,1.8727,1.8713,1.8731,1.8735,1.8737,1.8709,1.8708,1.8708,1.8707,0,0,1.8949,1.8914,1.8914,1.8904,1.8878,1.887,1.8863,1.8846,1.8841,1.8825,1.8819,1.8803,1.8792,1.8781,1.8765,1.8764,1.8778,1.8753,1.8752,1.8759,1.8782,1.8791,1.8794,1.8768,1.8768,1.8768,1.8784,0,1.8962,1.8948,1.8927,1.892,1.8911,1.8888,1.8882,1.8866,1.8852,1.8843,1.8827,1.8816,1.8802,1.8795,1.8793,1.8777,1.8782,1.8775,1.8763,1.8763,1.877,1.8796,1.8806,1.8821,1.8785,1.8786,1.8786,0,1.8975,1.896,1.8953,1.8929,1.8925,1.892,1.8904,1.8895,1.8877,1.8867,1.8856,1.8839,1.8832,1.882,1.881,1.8805,1.88,1.8791,1.8791,1.8789,1.8776,1.8796,1.8825,1.8828,1.8788,1.8788,1.8788,0,1.9001,1.898,1.8973,1.8965,1.8937,1.8934,1.8923,1.8905,1.8897,1.8883,1.8878,1.8864,1.8856,1.8846,1.8827,1.8819,1.882,1.8805,1.8812,1.8812,1.8813,1.8813,1.8842,1.8808,1.8808,1.8808,1.8808,0,1.9018,1.9014,1.8984,1.898,1.8976,1.8953,1.895,1.8936,1.8921,1.8914,1.8893,1.8888,1.8862,1.8854,1.8839,1.8834,1.883,1.8823,1.8819,1.8825,1.8826,1.8821,1.8819,1.8809,1.8809,1.8808,1.8808,0,1.9046,1.9026,1.9017,1.8992,1.8986,1.8984,1.8963,1.8959,1.8944,1.8936,1.8933,1.8909,1.8899,1.8879,1.8862,1.8852,1.8851,1.8843,1.8857,1.8854,1.8862,1.8862,1.889,1.8893,1.8856,1.8857,1.8857,0,1.9058,1.9055,1.903,1.9025,1.9014,1.9005,1.8997,1.8975,1.8967,1.8948,1.8946,1.8934,1.8923,1.8908,1.889,1.8877,1.887,1.8881,1.8868,1.8875,1.8871,1.8872,1.8872,1.8884,1.8884,1.8885,1.8885,0,1.9083,1.9073,1.9062,1.9048,1.904,1.9028,1.9015,1.9011,1.8986,1.8979,1.8968,1.896,1.8944,1.8933,1.8918,1.8907,1.8892,1.8889,1.889,1.8896,1.8905,1.8901,1.8865,1.8889,1.8888,1.8888,1.8888,1.8888,1.9104,1.91,1.9083,1.9072,1.906,1.9049,1.9044,1.9029,1.9019,1.9004,1.8992,1.8983,1.8967,1.8946,1.8936,1.8929,1.8921,1.8923,1.8923,1.8924,1.8927,1.8906,1.8926,1.8926,1.8926,1.8925,1.8925,0,1.9127,1.9116,1.9106,1.9089,1.9081,1.9068,1.9053,1.9047,1.9039,1.9025,1.9015,1.9004,1.8993,1.8975,1.8963,1.8961,1.8954,1.8958,1.8959,1.8957,1.8933,1.8934,1.8964,1.8964,1.8964,1.8964,1.8964,1.8964,1.9139,1.9133,1.9122,1.9111,1.9099,1.9089,1.9082,1.9072,1.9062,1.905,1.9041,1.9029,1.9014,1.9001,1.8991,1.8986,1.8983,1.899,1.8983,1.8962,1.8958,1.8954,1.8955,1.8989,1.8989,1.9006,1.9007,1.9007]},{"header":{"parameterUnit":"m.s-1","parameterCategory":1,"la1":30.2991,"la2":30.254,"lo1":-89.0895,"lo2":-89.0444,"dy":0.0017,"dx":0.0017,"nx":28,"ny":28,"refTime":"2024-02-19T03:00:00:Z","depth":0,"parameterNumber":3,"parameterNumberName":"V-component_of_WINDS"},"data":[0,0,0,0,0,0,0,0,0,0,0,0,0,0,0,0,0,0,0,0,0,0,0,0,0,0,0,0,0,0,0,0,0,0,0,0,0,0,0,0,0,0,0,0,0,0,0,0,0,0,0,0,0,0,0,0,0,0,1.0251,1.0252,0,1.0361,1.0363,1.0364,1.044,1.0441,1.0441,1.0442,1.0557,1.0559,1.0562,0,0,0,0,0,0,0,0,0,0,0,0,0,1.0104,1.0106,1.025,1.0252,1.0253,1.0361,1.0363,1.0364,1.044,1.0441,1.0441,1.0442,1.0556,1.0559,1.0562,0,0,0,0,0,0,0,0,0,0,0,0,0,1.0186,1.0107,1.025,1.0304,1.031,1.0361,1.0363,1.0365,1.044,1.0441,1.0442,1.0442,1.0555,1.0559,1.0562,1.0569,0,0,1.0574,1.0576,0,0,0,0,0,0,0,0,1.0182,1.0192,1.0295,1.03,1.0307,1.0388,1.0353,1.0433,1.044,1.0391,1.0442,1.0443,1.05,1.0508,1.0527,1.0574,1.0579,1.0574,1.0577,1.0578,1.0579,0,0,0,0,0,0,0,1.0176,1.0187,1.0294,1.0296,1.0304,1.0322,1.0335,1.0369,1.0439,1.0395,1.0401,1.0413,1.0503,1.0523,1.053,1.0581,1.0574,1.0578,1.058,1.0581,1.0636,1.0635,0,0,0,0,0,0,1.0162,1.0182,1.0291,1.0298,1.0245,1.0324,1.0339,1.0361,1.0439,1.0452,1.0412,1.0416,1.0516,1.0526,1.0535,1.0546,1.0578,1.0582,1.0584,1.0637,1.0636,1.0635,0,0,0,0,0,0,1.0158,1.0171,1.0286,1.0242,1.0258,1.0326,1.0351,1.0363,1.0383,1.0452,1.0465,1.0419,1.0517,1.0529,1.0559,1.0551,1.0583,1.0587,1.0638,1.0636,1.0635,1.0568,0,0,0,0,0,0,1.0154,1.0169,1.0172,1.0241,1.026,1.0309,1.035,1.0364,1.0389,1.0395,1.0462,1.0474,1.0519,1.0553,1.0563,1.0557,1.059,1.0639,1.0637,1.0636,1.0572,1.0565,1.0559,0,0,0,0,0,1.0148,1.015,1.0172,1.0185,1.0265,1.0308,1.0319,1.037,1.0388,1.0392,1.0436,1.0472,1.055,1.0555,1.0567,1.0562,1.064,1.0638,1.0636,1.0574,1.0566,1.056,0,0,0,0,0,0,1.008,1.016,1.0186,1.021,1.0251,1.0321,1.0327,1.036,1.0398,1.0403,1.0465,1.0479,1.0502,1.0535,1.054,1.0571,1.0599,1.0599,1.0548,1.0541,1.0535,1.0527,1.0593,0,0,0,0,0,1.0068,1.0095,1.0164,1.0179,1.0198,1.0259,1.0279,1.0315,1.0361,1.0379,1.0425,1.0469,1.0503,1.0524,1.056,1.0577,1.0592,1.0579,1.0573,1.0567,1.0567,1.0576,1.0571,1.0629,1.0629,1.0629,0,0,1.0043,1.009,1.0104,1.0166,1.0203,1.0229,1.0273,1.0301,1.0321,1.0384,1.0413,1.0449,1.0501,1.0524,1.0536,1.0552,1.0554,1.0565,1.056,1.0563,1.0574,1.0568,1.0563,1.0627,1.0628,1.0628,0,0,1.0011,1.005,1.0065,1.01,1.0154,1.0194,1.0197,1.0261,1.0286,1.0317,1.0364,1.0389,1.0447,1.0482,1.0507,1.0485,1.0519,1.0495,1.0462,1.0471,1.0466,1.0462,1.0453,1.0449,1.0494,1.0494,1.0494,0,0.9973,1.0015,1.0069,1.0092,1.0118,1.0174,1.0189,1.0221,1.0284,1.03,1.0316,1.0388,1.0428,1.0458,1.0452,1.0472,1.0477,1.0487,1.0462,1.0459,1.0456,1.0448,1.0444,1.049,1.0491,1.0491,1.0491,0,0.9965,0.9993,0.9999,1.0057,1.0083,1.0102,1.0158,1.0178,1.021,1.0248,1.0278,1.0326,1.0372,1.0382,1.0415,1.0416,1.0424,1.0451,1.048,1.0446,1.0439,1.0437,1.0485,1.0487,1.0488,1.0489,0,0,0.9895,0.998,0.9981,1.0006,1.0069,1.0092,1.0113,1.0156,1.017,1.0212,1.023,1.0276,1.0301,1.0329,1.0366,1.0373,1.035,1.0399,1.0401,1.0387,1.0352,1.0331,1.0326,1.0373,1.0373,1.0372,1.0347,0,0.9871,0.9911,0.9959,0.9983,1.0008,1.0061,1.0079,1.0119,1.0154,1.0181,1.022,1.0251,1.0282,1.0299,1.0309,1.0351,1.0344,1.0353,1.039,1.0391,1.0374,1.0323,1.0301,1.0275,1.0345,1.0345,1.0344,0,0.985,0.9886,0.9911,0.9969,0.9981,0.9997,1.0038,1.0064,1.0109,1.0134,1.0164,1.0203,1.0227,1.0253,1.0286,1.0292,1.0309,1.0332,1.0332,1.0337,1.0365,1.0325,1.0268,1.0263,1.0341,1.0341,1.0341,0,0.9793,0.9849,0.987,0.9891,0.9959,0.9968,0.9997,1.0044,1.0065,1.0102,1.0117,1.0156,1.0177,1.0206,1.0254,1.0269,1.0281,1.0312,1.0302,1.0301,1.0302,1.0301,1.0246,1.0315,1.0315,1.0315,1.0315,0,0.9761,0.9774,0.9846,0.9859,0.9875,0.9929,0.9943,0.9977,1.0017,1.0037,1.0086,1.0104,1.0167,1.0192,1.023,1.025,1.026,1.028,1.029,1.0275,1.0272,1.0287,1.029,1.0314,1.0314,1.0315,1.0315,0,0.9701,0.9749,0.9776,0.9838,0.9853,0.9862,0.9915,0.9929,0.9966,0.9991,1.0,1.0058,1.009,1.0141,1.0189,1.0214,1.0227,1.0244,1.0211,1.0217,1.0203,1.0203,1.0155,1.015,1.0223,1.0222,1.0221,0,0.9677,0.9688,0.975,0.9766,0.9793,0.9819,0.9841,0.9894,0.9915,0.9966,0.9974,1.0009,1.004,1.0088,1.0135,1.0171,1.0189,1.0169,1.0194,1.0178,1.0186,1.0185,1.0185,1.0163,1.0162,1.0161,1.016,0,0.9629,0.9651,0.9681,0.9717,0.9742,0.9774,0.9808,0.9819,0.9879,0.99,0.9932,0.9956,1.0003,1.0037,1.0079,1.0109,1.0144,1.0152,1.0151,1.0136,1.0115,1.0124,1.0194,1.0153,1.0154,1.0154,1.0154,1.0155,0.9585,0.9596,0.964,0.9671,0.9702,0.9732,0.9748,0.9786,0.9813,0.9855,0.9885,0.9914,0.9958,1.0017,1.0045,1.0069,1.0085,1.0084,1.0084,1.0082,1.0076,1.0112,1.0077,1.0077,1.0078,1.0078,1.0078,0,0.9538,0.9568,0.9595,0.9641,0.9664,0.9694,0.9733,0.975,0.9776,0.9813,0.9841,0.9877,0.991,0.9958,0.9994,1.0004,1.002,1.0011,1.0011,1.0016,1.0061,1.0057,0.9997,0.9997,0.9997,0.9997,0.9997,0.9997,0.9516,0.9535,0.9563,0.9597,0.9628,0.9657,0.9676,0.9704,0.9733,0.9771,0.9797,0.9828,0.9869,0.9908,0.9939,0.9952,0.9962,0.9948,0.9966,1.0006,1.0014,1.0021,1.0017,0.995,0.995,0.9919,0.9919,0.9919]}]]